Location: Irma
(52.9170°N, 111.2330°W)
Time: 06:10:37
(UTC-06:00)

Daily predictions for brighter satellites

Satellite Brightness Start Highest point End
(mag) Time Altitude Azimuth Time Altitude Azimuth Time Altitude Azimuth
Cosmos 2360 Rocket 2.8 21:03:44 10° SSE 21:08:41 33° ESE 21:13:39 10° NE
Cosmos 1980 Rocket 3.1 21:04:15 10° SW 21:09:44 54° NW 21:15:16 10° NNE
Cosmos 1420 Rocket 4.0 21:04:38 10° SSW 21:09:49 89° SE 21:15:04 10° NNE
Cosmos 1452 Rocket 4.0 21:05:26 10° SW 21:10:43 69° WNW 21:16:01 10° NNE
Cosmos 220 Rocket 4.4 21:07:43 10° NNW 21:11:59 65° WSW 21:16:17 10° SSE
Cosmos 1844 4.3 21:09:30 10° NNW 21:14:58 46° NE 21:20:28 10° ESE
ERBS 2.7 21:12:50 10° WSW 21:16:20 69° NNW 21:19:48 10° ENE
CZ-4B DEB 3.4 21:14:58 10° SE 21:17:35 33° ENE 21:20:14 10° N
COSMOS 2428 4.0 21:14:07 10° SE 21:18:08 20° E 21:22:08 10° NE
Cosmos 1025 Rocket 3.0 21:17:20 10° N 21:21:38 70° ENE 21:25:53 10° SSE
NOSS 3-1 (C) 4.5 21:17:43 10° WSW 21:23:43 53° NNW 21:30:37 10° NE
Cosmos 724 4.5 21:18:33 10° NW 21:24:29 64° NE 21:30:09 11° SE
USA 186 3.4 21:22:10 10° SSW 21:25:21 38° W 21:28:30 10° NNW
Cosmos 839 Rocket 4.2 21:23:17 10° SW 21:29:26 80° NW 21:36:07 10° NE
USA 215 3.5 21:22:58 10° ENE 21:29:31 77° NNW 21:36:04 10° WSW
Cosmos 1536 2.9 21:25:30 10° S 21:29:34 89° W 21:33:40 10° N
Cosmos 1300 Rocket 3.5 21:25:39 10° S 21:29:58 88° WNW 21:34:20 10° N
MetOp-A 4.5 21:24:53 10° SE 21:30:02 50° ENE 21:35:13 10° N
BREEZE M DEB (TANK) 4.3 21:27:33 10° S 21:30:35 14° SSE 21:32:14 11° SE
Meteor 1-5 Rocket 4.1 21:25:36 10° S 21:30:51 68° E 21:36:09 10° NNE
NOAA 11 4.3 21:25:43 10° SSE 21:31:08 62° ENE 21:36:34 10° N
Cosmos 2333 Rocket 3.9 21:29:06 10° ESE 21:31:14 13° E 21:33:34 10° ENE
Okean 1 Rocket 3.0 21:28:52 10° S 21:33:12 71° E 21:37:37 10° NNE
NOSS 2-3 (C) 4.0 21:28:21 10° SSW 21:33:13 69° SE 21:39:08 10° NE
Cosmos 1939 Rocket 3.3 21:30:06 10° S 21:34:01 63° W 21:37:53 10° NNW
NOSS 3-2 (A) 4.0 21:30:26 10° NW 21:37:41 86° NE 21:45:10 12° SE
USA 238 DEB 4.1 21:34:18 10° NW 21:41:18 63° SW 21:48:19 10° SSE
USA 238 4.1 21:34:24 10° NW 21:41:24 64° SW 21:48:26 10° SSE
Cosmos 1238 Rocket 4.2 21:35:58 10° N 21:42:42 64° ENE 21:48:55 10° SSE
Cosmos 2237 Rocket 4.0 21:42:11 10° E 21:42:49 10° E 21:43:47 10° E
Helios 1A 3.1 21:39:01 10° SSE 21:43:16 79° WSW 21:47:32 10° NNW
Okean 1-7 Rocket 3.9 21:44:00 10° NNW 21:48:30 72° W 21:53:01 10° S
Cosmos 1503 Rocket 4.3 21:44:02 10° NNW 21:49:21 57° ENE 21:53:41 15° SE
YAOGAN 6 3.2 21:45:53 10° S 21:49:21 56° W 21:52:50 10° NNW
ATLAS 3B R/B 3.3 21:44:05 10° NW 21:50:36 50° WSW 21:56:51 10° SSE
Cosmos 1818 4.4 21:46:40 10° S 21:51:11 28° ESE 21:55:45 10° ENE
Meteor 1-29 3.4 21:48:10 10° NNE 21:51:26 40° E 21:54:32 11° S
ERS-1 Rocket 3.0 21:47:06 10° SSE 21:52:08 78° ENE 21:57:10 10° NNW
Cosmos 1066 Rocket 4.2 21:46:55 10° N 21:52:20 68° ENE 21:57:29 12° SSE
SPOT 1/Viking Rocket 4.1 21:49:27 15° SE 21:53:30 42° ENE 21:58:25 10° N
BREEZE-M DEB 4.1 21:44:20 10° W 21:55:26 55° SSW 21:58:03 18° SE
SL-08 RB Rocket 4.0 21:53:48 16° SE 21:57:19 51° ENE 22:01:42 10° N
ATLAS CENTAUR R/B 2.9 21:54:50 10° NNW 21:57:53 23° NNE 22:00:51 10° E
ARGOS 3.2 21:54:02 13° SSE 21:58:52 68° ENE 22:04:13 10° NNW
H-2A R/B 4.1 21:57:37 11° E 22:00:05 16° NE 22:02:44 10° NNE
Resurs 01 Rocket 4.1 21:56:45 10° SW 22:00:09 21° W 22:03:35 10° NW
Cosmos 1743 3.7 22:04:31 21° SE 22:05:59 28° E 22:09:16 10° NNE
Cosmos 2263 Rocket 4.4 22:02:56 10° NW 22:07:09 22° W 22:11:22 10° SSW
Cosmos 2266 Rocket 4.5 22:01:29 10° SSW 22:07:27 62° WNW 22:13:29 10° N
YAOGAN 11 4.3 22:04:45 19° SE 22:07:39 54° ENE 22:11:52 10° N
Aureole 3 Rocket 4.4 22:03:32 10° NNW 22:12:22 90° ENE 22:18:23 12° S
USA 245 3.4 22:09:10 18° SSE 22:12:30 72° ENE 22:16:10 10° N
COSMOS 2455 3.8 22:07:16 10° NW 22:12:55 39° NE 22:17:33 15° E
BREEZE M DEB (TANK) 3.4 22:05:19 10° W 22:13:03 57° SSW 22:14:50 25° ESE
NOSS 2-3 (D) 4.3 22:08:16 10° SW 22:13:14 76° NW 22:19:20 10° NE
Cosmos 1844 Rocket 2.9 22:08:15 10° NW 22:13:54 68° WSW 22:18:29 16° SSE
SPOT 5 2.7 22:11:06 18° SSE 22:14:32 71° ENE 22:19:04 10° NNW
Helios 1B rocket 2.4 22:10:36 10° NNE 22:14:44 90° ESE 22:18:51 10° SSW
Cosmos 1626 Rocket 4.0 22:10:42 10° N 22:14:51 43° ENE 22:17:04 24° SE
Cosmos 2278 Rocket 2.4 22:10:38 10° NNW 22:16:18 63° NE 22:20:01 22° SE
Lacrosse 5 1.8 22:11:57 10° SW 22:17:01 74° SSE 22:22:06 10° ENE
NOSS 3-2 (C) 4.0 22:10:55 10° NW 22:18:13 80° SW 22:24:12 20° SE
DNEPR-1 R/B 4.3 22:14:41 10° NW 22:18:50 45° NE 22:21:44 20° ESE
Cosmos 1892 Rocket 3.8 22:14:56 10° NNW 22:19:22 71° W 22:23:06 14° S
Cosmos 2322 Rocket 3.4 22:15:58 10° WSW 22:21:26 45° NW 22:26:55 10° NNE
MetOp-B 4.3 22:19:07 13° S 22:23:58 71° WSW 22:29:20 10° NNW
Meteor 1-21 4.3 22:20:04 10° N 22:25:40 63° ENE 22:29:13 23° SSE
IGS 5A 4.4 22:24:21 24° ESE 22:26:03 34° ENE 22:29:51 10° N
Cosmos 968 Rocket 3.9 22:25:04 10° NNW 22:30:04 48° ENE 22:32:43 25° ESE
Landsat 7 4.0 22:27:49 26° SE 22:30:22 56° ENE 22:35:03 10° N
H-2A R/B 1.9 22:27:32 22° SSE 22:30:51 83° ENE 22:35:49 10° NNW
EXPRESS MD2 3.6 22:28:24 10° WSW 22:31:41 59° S 22:37:13 13° E
Cosmos 1302 Rocket 3.9 22:26:26 10° SSW 22:31:42 75° ESE 22:36:59 10° NNE
Abrixas rocket 4.2 22:30:12 10° WSW 22:32:25 17° SSW 22:32:41 17° SSW
Cosmos 2237 4.1 22:27:33 10° SSW 22:33:15 81° ESE 22:38:59 10° NNE
Cosmos 1500 3.6 22:30:08 10° SSW 22:33:59 64° WNW 22:37:52 10° N
SL-16 R/B 3.8 22:30:01 10° WSW 22:35:19 38° NW 22:40:38 10° NNE
Cosmos 2219 Rocket 2.5 22:31:38 16° S 22:35:52 43° ESE 22:41:11 10° NE
SeaSat 1 2.7 22:32:09 10° NNE 22:37:06 72° NW 22:42:00 10° SW
CENTAUR R/B 3.1 22:30:29 10° NW 22:38:03 74° NE 22:43:45 23° ESE
Cosmos 1544 Rocket 3.5 22:34:25 15° S 22:38:06 85° ESE 22:42:35 10° NNE
Cosmos 405 3.3 22:35:03 11° SSW 22:38:25 68° WNW 22:42:02 10° N
Aureole 2 Rocket 2.5 22:38:48 44° ESE 22:38:48 44° ESE 22:41:47 10° NE
Timation 1 Rocket 4.3 22:34:11 10° NW 22:40:13 86° WSW 22:43:43 27° SSE
ATLAS 2AS CENTAUR R/B 3.3 22:32:22 10° SW 22:40:19 79° NW 22:48:32 10° NE
Cosmos 1745 Rocket 3.9 22:35:31 16° S 22:40:30 68° E 22:46:39 10° NNE
ATLAS CENTAUR R/B 4.3 22:22:13 10° WNW 22:42:17 74° N 22:47:42 16° E
Meteor 1-4 Rocket 4.1 22:43:42 23° E 22:43:42 23° E 22:46:26 10° NE
Terra 2.0 22:43:40 31° SE 22:45:43 56° ENE 22:50:24 10° N
Cosmos 2322 4.0 22:42:52 10° SW 22:48:32 68° NW 22:54:14 10° NNE
Cosmos 1975 3.2 22:45:06 12° SSW 22:48:41 63° WNW 22:52:41 10° N
Cosmos 1943 Rocket 4.5 22:45:33 10° NNW 22:48:56 16° NNE 22:52:19 10° ENE
Cosmos 1455 Rocket 3.1 22:46:55 18° SSW 22:50:14 84° W 22:54:44 10° N
NOSS 3-4 (A) 3.8 22:45:04 10° S 22:50:56 43° ESE 22:57:02 10° NE
NOSS 3-4 (C) 3.8 22:45:11 10° S 22:51:03 42° ESE 22:57:09 10° NE
GP-B 3.3 22:48:00 10° N 22:52:24 55° E 22:53:46 38° SE
Cosmos 2360 Rocket 2.9 22:46:56 10° SW 22:52:28 56° NW 22:58:02 10° NNE
SL-16 R/B 3.9 22:53:30 16° E 22:53:30 16° E 22:56:15 10° ENE
ERBS 3.6 22:50:01 10° WNW 22:53:20 40° N 22:55:40 17° ENE
Cosmos 1184 Rocket 4.2 22:54:25 10° N 22:57:12 25° ENE 22:57:12 25° ENE
ARGOS Delta rocket 4.5 22:55:06 10° NNE 22:59:17 34° E 22:59:51 33° ESE
Cosmos 1386 Rocket 4.4 22:55:34 22° S 22:59:47 75° E 23:06:08 10° NNE
COSMOS 2428 2.7 22:55:55 10° SSW 23:01:41 88° NW 23:07:27 10° NNE
OPS 6432 4.2 23:02:13 10° SW 23:05:25 74° NW 23:08:26 10° NE
USA 215 3.7 23:05:52 10° E 23:12:19 63° N 23:18:46 10° WNW
Cosmos 1241 Rocket 4.5 23:06:02 10° SW 23:12:35 90° NW 23:19:04 10° NE
Cosmos 1437 Rocket 3.1 23:12:15 28° SSW 23:14:11 63° WNW 23:18:06 10° N
Cosmos 2333 Rocket 2.1 23:11:01 24° S 23:14:25 65° ESE 23:20:02 10° NE
Meteor 2-5 Rocket 4.5 23:09:33 10° N 23:15:10 42° ENE 23:17:16 31° ESE
Cosmos 1666 3.0 23:17:47 39° SW 23:19:05 67° WNW 23:22:56 10° N
Cosmos 2333 4.4 23:14:22 10° SW 23:20:00 73° WNW 23:25:39 10° NNE
Cosmos 2369 Rocket 3.8 23:16:05 10° NNW 23:20:57 27° NE 23:24:27 16° E
CARTOSAT-1 3.7 23:21:47 46° S 23:22:56 70° WSW 23:27:17 10° NNW
Cosmos 1707 3.5 23:21:00 10° N 23:24:40 39° ENE 23:24:40 39° ENE
Cosmos 2237 Rocket 2.2 23:23:58 41° SSE 23:25:40 57° ESE 23:31:11 10° NE
Spot 4 3.9 23:24:37 48° SE 23:25:45 66° ENE 23:30:31 10° N
DMSP B5D2-2 4.0 23:21:52 10° NNE 23:27:10 87° ESE 23:29:33 34° SSW
CZ-4C R/B 3.9 23:29:28 37° ENE 23:29:28 37° ENE 23:32:30 10° N
Nimbus 7 Rocket 4.4 23:25:08 10° NNE 23:31:02 83° WNW 23:34:46 24° SSW
Cosmos 1980 3.6 23:30:32 37° S 23:32:47 68° ESE 23:38:27 10° NE
Cosmos 1726 Rocket 4.3 23:34:11 37° E 23:34:11 37° E 23:38:06 10° NNE
ALOS 2 4.1 23:33:20 23° ENE 23:34:06 25° ENE 23:37:40 10° N
Cosmos 1818 3.7 23:28:55 10° SW 23:34:21 73° NW 23:39:50 10° NE
H-2A R/B 2.0 23:34:44 63° SSE 23:35:26 87° ENE 23:39:56 10° NNW
Cosmos 1953 Rocket 3.5 23:32:37 10° N 23:37:07 71° ENE 23:37:38 63° ESE
Cosmos 1842 4.3 23:33:32 10° NNW 23:37:15 39° W 23:38:07 34° SW
ATLAS CENTAUR R/B 1.0 23:33:33 10° NW 23:37:06 78° W 23:37:06 78° W
Meteor 1-15 Rocket 4.3 23:35:54 44° SSE 23:37:41 66° E 23:43:35 10° NNE
Cosmos 972 Rocket 4.2 23:35:42 40° S 23:37:49 73° ESE 23:44:08 10° NNE
Cosmos 374 Rocket 4.4 23:34:31 10° NW 23:38:53 69° NE 23:39:16 63° ENE
Cosmos 1743 4.4 23:39:37 18° WSW 23:41:45 30° WNW 23:45:11 10° N
DELTA 2 DEB (DPAF) 4.2 23:41:20 59° ESE 23:41:54 66° ENE 23:46:23 10° N
Cosmos 1777 Rocket 3.9 23:36:52 10° NNW 23:42:11 82° ENE 23:43:26 54° SE
USA 81 4.2 23:37:28 10° N 23:42:44 67° W 23:44:32 41° SSW
RESURS DK-1 2.9 23:44:39 44° ENE 23:44:39 44° ENE 23:47:51 10° NE
Cosmos 2181 Rocket 4.2 23:41:44 10° NNW 23:48:09 71° W 23:50:46 37° SSW
Cosmos 1709 Rocket 4.0 23:45:16 34° SSW 23:48:10 83° WNW 23:54:30 10° N
Cosmos 2297 3.8 23:44:27 10° NW 23:50:05 67° WSW 23:51:32 49° S
CZ-4 R/B 3.9 23:45:21 10° NNE 23:50:06 59° ESE 23:50:23 57° ESE
Cosmos 1340 Rocket 2.9 23:50:29 10° N 23:54:10 66° NE 23:54:10 66° NE
